This is the latest recevied weather packets stored in our database for station/object K5OLV. If no packets are shown the sender has not sent any weather packets the latest 10 day(s).
| Time | Temp. | Humidity | Pressure | Rain* | Wind** | Luminosity | Snow |
|---|---|---|---|---|---|---|---|
| 1788177274 | 21.11° C | 95% | 1019.6 hPa | 0 mm | - | 26 W/m² | - |
| 1788176973 | 21.11° C | 95% | 1019.3 hPa | 0 mm | - | 23 W/m² | - |
| 1788176672 | 21.11° C | 95% | 1019.4 hPa | 0 mm | - | 18 W/m² | - |
| 1788176368 | 21.11° C | 95% | 1019.3 hPa | 0 mm | - | 15 W/m² | - |
| 1788176068 | 21.11° C | 95% | 1019.3 hPa | 0 mm | - | 11 W/m² | - |
| 1788175763 | 21.11° C | 95% | 1019.3 hPa | 0 mm | - | 10 W/m² | - |
| 1788175463 | 21.11° C | 95% | 1019.3 hPa | 0 mm | - | 6 W/m² | - |
| 1788175158 | 21.11° C | 95% | 1019.3 hPa | 0 mm | - | 3 W/m² | - |
| 1788174854 | 21.11° C | 95% | 1019.2 hPa | 0 mm | - | 1 W/m² | - |
| 1788174549 | 21.11° C | 95% | 1019.2 hPa | 0 mm | - | 0 W/m² | - |
| 1788174244 | 21.11° C | 95% | 1018.9 hPa | 0 mm | - | 0 W/m² | - |
| 1788173943 | 21.11° C | 95% | 1019 hPa | 0 mm | - | 0 W/m² | - |
| 1788173639 | 21.11° C | 95% | 1019 hPa | 0 mm | - | 0 W/m² | - |
| 1788173334 | 21.11° C | 95% | 1019 hPa | 0 mm | - | 0 W/m² | - |
| 1788173029 | 21.11° C | 94% | 1018.9 hPa | 0 mm | - | 0 W/m² | - |
| 1788172724 | 21.11° C | 94% | 1018.9 hPa | 0 mm | - | 0 W/m² | - |
| 1788172420 | 21.67° C | 94% | 1018.5 hPa | 0 mm | - | 0 W/m² | - |
| 1788172115 | 21.67° C | 93% | 1018.6 hPa | 0 mm | - | 0 W/m² | - |
| 1788171810 | 21.67° C | 93% | 1018.7 hPa | 0 mm | - | 0 W/m² | - |
| 1788171506 | 21.67° C | 93% | 1018.4 hPa | 0 mm | - | 0 W/m² | - |
| 1788171201 | 21.67° C | 93% | 1018.6 hPa | 0 mm | - | 0 W/m² | - |
| 1788170897 | 21.67° C | 93% | 1018.6 hPa | 0 mm | - | 0 W/m² | - |
| 1788170593 | 21.67° C | 93% | 1018.5 hPa | 0 mm | - | 0 W/m² | - |
| 1788170292 | 21.67° C | 93% | 1018.3 hPa | 0 mm | - | 0 W/m² | - |
| 1788169992 | 21.67° C | 93% | 1018.2 hPa | 0 mm | - | 0 W/m² | - |
* Rain latest hour (hover to see other rain measurements)
** Current wind speed in m/s (hover to see current wind gust speed)